����������;��������(kWh)
2015-06-24 00:00;85,7
2015-06-24 00:15;81,3
2015-06-24 00:30;80,1
2015-06-24 00:45;80,3
2015-06-24 01:00;78,15
2015-06-24 01:15;78,05
2015-06-24 01:30;79,3
2015-06-24 01:45;79
2015-06-24 02:00;80,1
2015-06-24 02:15;82,2
2015-06-24 02:30;76,3
2015-06-24 02:45;75,4
2015-06-24 03:00;75,6
2015-06-24 03:15;79,15
2015-06-24 03:30;77,65
2015-06-24 03:45;75,2
2015-06-24 04:00;74,7
2015-06-24 04:15;78,05
2015-06-24 04:30;81,2
2015-06-24 04:45;81,45
2015-06-24 05:00;86,65
2015-06-24 05:15;85,3
2015-06-24 05:30;85,6
2015-06-24 05:45;80,85
2015-06-24 06:00;83
2015-06-24 06:15;80,9
2015-06-24 06:30;81,85
2015-06-24 06:45;80,75
2015-06-24 07:00;76,15
2015-06-24 07:15;79,55
2015-06-24 07:30;81,95
2015-06-24 07:45;120,45
2015-06-24 08:00;119,8
2015-06-24 08:15;118
2015-06-24 08:30;118,5
2015-06-24 08:45;120,25
2015-06-24 09:00;123,95
2015-06-24 09:15;135,45
2015-06-24 09:30;152,55
2015-06-24 09:45;161,7
2015-06-24 10:00;160,4
2015-06-24 10:15;159,9
2015-06-24 10:30;161,85
2015-06-24 10:45;162,35
2015-06-24 11:00;185,15
2015-06-24 11:15;191
2015-06-24 11:30;189,4
2015-06-24 11:45;186,45
2015-06-24 12:00;194,3
2015-06-24 12:15;192,8
2015-06-24 12:30;187,85
2015-06-24 12:45;194
2015-06-24 13:00;198,2
2015-06-24 13:15;194,05
2015-06-24 13:30;191,25
2015-06-24 13:45;193,85
2015-06-24 14:00;198,15
2015-06-24 14:15;201,75
2015-06-24 14:30;195,5
2015-06-24 14:45;197,4
2015-06-24 15:00;197,25
2015-06-24 15:15;204,55
2015-06-24 15:30;203,6
2015-06-24 15:45;193
2015-06-24 16:00;185,05
2015-06-24 16:15;178
2015-06-24 16:30;173,35
2015-06-24 16:45;169,6
2015-06-24 17:00;168,95
2015-06-24 17:15;165,75
2015-06-24 17:30;156,15
2015-06-24 17:45;137,95
2015-06-24 18:00;131,55
2015-06-24 18:15;132,25
2015-06-24 18:30;124,25
2015-06-24 18:45;128,55
2015-06-24 19:00;127,85
2015-06-24 19:15;123,05
2015-06-24 19:30;117,1
2015-06-24 19:45;116,4
2015-06-24 20:00;112,8
2015-06-24 20:15;107,4
2015-06-24 20:30;100,7
2015-06-24 20:45;98,35
2015-06-24 21:00;108,15
2015-06-24 21:15;101,45
2015-06-24 21:30;97,85
2015-06-24 21:45;100,25
2015-06-24 22:00;94,6
2015-06-24 22:15;88,65
2015-06-24 22:30;86,7
2015-06-24 22:45;83,65
2015-06-24 23:00;87,9
2015-06-24 23:15;90,95
2015-06-24 23:30;94,45
2015-06-24 23:45;85,55
2015-06-25 00:00;84,55
2015-06-25 00:15;79,85
2015-06-25 00:30;79,15
2015-06-25 00:45;77,3
2015-06-25 01:00;76,35
2015-06-25 01:15;77,35
2015-06-25 01:30;78,6
2015-06-25 01:45;76
2015-06-25 02:00;79,9
2015-06-25 02:15;74,95
2015-06-25 02:30;78,35
2015-06-25 02:45;76
2015-06-25 03:00;74,15
2015-06-25 03:15;74
2015-06-25 03:30;73
2015-06-25 03:45;75,45
2015-06-25 04:00;75,85
2015-06-25 04:15;74,3
2015-06-25 04:30;78,4
2015-06-25 04:45;73,2
2015-06-25 05:00;83,25
2015-06-25 05:15;88,5
2015-06-25 05:30;87,75
2015-06-25 05:45;80,7
2015-06-25 06:00;82,95
2015-06-25 06:15;83,35
2015-06-25 06:30;81,9
2015-06-25 06:45;77,25
2015-06-25 07:00;79,15
2015-06-25 07:15;82,25
2015-06-25 07:30;80,75
2015-06-25 07:45;91,6
2015-06-25 08:00;95,6
2015-06-25 08:15;105,6
2015-06-25 08:30;112,05
2015-06-25 08:45;112,95
2015-06-25 09:00;124,25
2015-06-25 09:15;129,15
2015-06-25 09:30;129,9
2015-06-25 09:45;135,75
2015-06-25 10:00;144,9
2015-06-25 10:15;145,8
2015-06-25 10:30;155,15
2015-06-25 10:45;200,35
2015-06-25 11:00;232,25
2015-06-25 11:15;228,3
2015-06-25 11:30;208,2
2015-06-25 11:45;180,4
2015-06-25 12:00;193,55
2015-06-25 12:15;199,05
2015-06-25 12:30;188,75
2015-06-25 12:45;189,75
2015-06-25 13:00;194,25
2015-06-25 13:15;185,35
2015-06-25 13:30;193,6
2015-06-25 13:45;179,55
2015-06-25 14:00;181,65
2015-06-25 14:15;173,55
2015-06-25 14:30;175,5
2015-06-25 14:45;194,95
2015-06-25 15:00;189,45
2015-06-25 15:15;176,55
2015-06-25 15:30;178,2
2015-06-25 15:45;174,65
2015-06-25 16:00;164,55
2015-06-25 16:15;153,3
2015-06-25 16:30;139,45
2015-06-25 16:45;138,35
2015-06-25 17:00;140,2
2015-06-25 17:15;132,4
2015-06-25 17:30;136
2015-06-25 17:45;123,65
2015-06-25 18:00;123,45
2015-06-25 18:15;124,7
2015-06-25 18:30;120,2
2015-06-25 18:45;114,95
2015-06-25 19:00;121,45
2015-06-25 19:15;115,4
2015-06-25 19:30;111,4
2015-06-25 19:45;111,2
2015-06-25 20:00;117,9
2015-06-25 20:15;108,3
2015-06-25 20:30;107,75
2015-06-25 20:45;100,7
2015-06-25 21:00;96,35
2015-06-25 21:15;102,5
2015-06-25 21:30;95
2015-06-25 21:45;98,4
2015-06-25 22:00;87,9
2015-06-25 22:15;85,65
2015-06-25 22:30;85,75
2015-06-25 22:45;95,8
2015-06-25 23:00;90,1
2015-06-25 23:15;88,15
2015-06-25 23:30;84,7
2015-06-25 23:45;81,45
2015-06-26 00:00;83,55
2015-06-26 00:15;79,55
2015-06-26 00:30;78,95
2015-06-26 00:45;83,95
2015-06-26 01:00;79,45
2015-06-26 01:15;78,15
2015-06-26 01:30;76,7
2015-06-26 01:45;76,45
2015-06-26 02:00;78,7
2015-06-26 02:15;76,95
2015-06-26 02:30;76,35
2015-06-26 02:45;76,6
2015-06-26 03:00;80,95
2015-06-26 03:15;76,5
2015-06-26 03:30;75,85
2015-06-26 03:45;74,25
2015-06-26 04:00;76,7
2015-06-26 04:15;76,9
2015-06-26 04:30;74,7
2015-06-26 04:45;74,7
2015-06-26 05:00;80
2015-06-26 05:15;91,8
2015-06-26 05:30;87,9
2015-06-26 05:45;90,15
2015-06-26 06:00;86,25
2015-06-26 06:15;83,5
2015-06-26 06:30;86,8
2015-06-26 06:45;79,8
2015-06-26 07:00;77,7
2015-06-26 07:15;84,2
2015-06-26 07:30;87,25
2015-06-26 07:45;88,65
2015-06-26 08:00;147,55
2015-06-26 08:15;145,65
2015-06-26 08:30;118,3
2015-06-26 08:45;127
2015-06-26 09:00;122
2015-06-26 09:15;122,65
2015-06-26 09:30;135,35
2015-06-26 09:45;137,55
2015-06-26 10:00;152,95
2015-06-26 10:15;155,2
2015-06-26 10:30;154,45
2015-06-26 10:45;175,25
2015-06-26 11:00;201,45
2015-06-26 11:15;186,35
2015-06-26 11:30;173,6
2015-06-26 11:45;172,4
2015-06-26 12:00;189,6
2015-06-26 12:15;191,75
2015-06-26 12:30;189,95
2015-06-26 12:45;203,45
2015-06-26 13:00;203,75
2015-06-26 13:15;202,75
2015-06-26 13:30;206,85
2015-06-26 13:45;208,25
2015-06-26 14:00;210,4
2015-06-26 14:15;204,7
2015-06-26 14:30;199,95
2015-06-26 14:45;202,6
2015-06-26 15:00;199,2
2015-06-26 15:15;190,8
2015-06-26 15:30;187,1
2015-06-26 15:45;184,2
2015-06-26 16:00;177,45
2015-06-26 16:15;169,35
2015-06-26 16:30;157,7
2015-06-26 16:45;156,7
2015-06-26 17:00;150,45
2015-06-26 17:15;150,35
2015-06-26 17:30;139,9
2015-06-26 17:45;144,75
2015-06-26 18:00;131,2
2015-06-26 18:15;135,55
2015-06-26 18:30;131,35
2015-06-26 18:45;126,75
2015-06-26 19:00;127,7
2015-06-26 19:15;117,1
2015-06-26 19:30;112,45
2015-06-26 19:45;113,05
2015-06-26 20:00;110,7
2015-06-26 20:15;107,9
2015-06-26 20:30;93,55
2015-06-26 20:45;89,1
2015-06-26 21:00;94,25
2015-06-26 21:15;92,45
2015-06-26 21:30;101,25
2015-06-26 21:45;91,4
2015-06-26 22:00;87,85
2015-06-26 22:15;85,25
2015-06-26 22:30;85,9
2015-06-26 22:45;82,5
2015-06-26 23:00;89,9
2015-06-26 23:15;85
2015-06-26 23:30;83,45
2015-06-26 23:45;81,25
2015-06-27 00:00;86,6
2015-06-27 00:15;80
2015-06-27 00:30;80,8
2015-06-27 00:45;81,45
2015-06-27 01:00;75,3
2015-06-27 01:15;78,1
2015-06-27 01:30;82,8
2015-06-27 01:45;82,25
2015-06-27 02:00;83,15
2015-06-27 02:15;86,05
2015-06-27 02:30;78,9
2015-06-27 02:45;76,05
2015-06-27 03:00;75,5
2015-06-27 03:15;75,1
2015-06-27 03:30;78,75
2015-06-27 03:45;79,15
2015-06-27 04:00;74,55
2015-06-27 04:15;76,55
2015-06-27 04:30;74,7
2015-06-27 04:45;76
2015-06-27 05:00;76,05
2015-06-27 05:15;77,5
2015-06-27 05:30;74,75
2015-06-27 05:45;73,95
2015-06-27 06:00;74,55
2015-06-27 06:15;68,85
2015-06-27 06:30;76,35
2015-06-27 06:45;75,75
2015-06-27 07:00;71,5
2015-06-27 07:15;73,25
2015-06-27 07:30;70,2
2015-06-27 07:45;72,45
2015-06-27 08:00;129,6
2015-06-27 08:15;110,05
2015-06-27 08:30;88,85
2015-06-27 08:45;81,65
2015-06-27 09:00;88,4
2015-06-27 09:15;91,9
2015-06-27 09:30;90,85
2015-06-27 09:45;88,6
2015-06-27 10:00;93,4
2015-06-27 10:15;95,55
2015-06-27 10:30;90,5
2015-06-27 10:45;89,05
2015-06-27 11:00;95,2
2015-06-27 11:15;90,3
2015-06-27 11:30;96,5
2015-06-27 11:45;99,2
2015-06-27 12:00;92,6
2015-06-27 12:15;98,45
2015-06-27 12:30;105,15
2015-06-27 12:45;104,2
2015-06-27 13:00;105,5
2015-06-27 13:15;106,95
2015-06-27 13:30;104,15
2015-06-27 13:45;90,2
2015-06-27 14:00;93,05
2015-06-27 14:15;98,2
2015-06-27 14:30;104,5
2015-06-27 14:45;101,35
2015-06-27 15:00;99,6
2015-06-27 15:15;104,1
2015-06-27 15:30;97,25
2015-06-27 15:45;100,85
2015-06-27 16:00;96,8
2015-06-27 16:15;95,75
2015-06-27 16:30;99
2015-06-27 16:45;95,9
2015-06-27 17:00;111,05
2015-06-27 17:15;97,9
2015-06-27 17:30;96
2015-06-27 17:45;98,65
2015-06-27 18:00;102,75
2015-06-27 18:15;100,7
2015-06-27 18:30;98,1
2015-06-27 18:45;102,2
2015-06-27 19:00;92,6
2015-06-27 19:15;89,35
2015-06-27 19:30;81,5
2015-06-27 19:45;88,7
2015-06-27 20:00;89,35
2015-06-27 20:15;81,4
2015-06-27 20:30;79,85
2015-06-27 20:45;78,95
2015-06-27 21:00;83,9
2015-06-27 21:15;84,9
2015-06-27 21:30;90
2015-06-27 21:45;88,25
2015-06-27 22:00;90,1
2015-06-27 22:15;91,3
2015-06-27 22:30;90,55
2015-06-27 22:45;88,3
2015-06-27 23:00;86,1
2015-06-27 23:15;97,25
2015-06-27 23:30;94,95
2015-06-27 23:45;93,2
2015-06-28 00:00;96,35
2015-06-28 00:15;91,35
2015-06-28 00:30;90,5
2015-06-28 00:45;90,15
2015-06-28 01:00;86,85
2015-06-28 01:15;85,6
2015-06-28 01:30;85,35
2015-06-28 01:45;83,85
2015-06-28 02:00;82,6
2015-06-28 02:15;82,65
2015-06-28 02:30;89,65
2015-06-28 02:45;86,35
2015-06-28 03:00;82,55
2015-06-28 03:15;81,8
2015-06-28 03:30;81,7
2015-06-28 03:45;83,25
2015-06-28 04:00;83,6
2015-06-28 04:15;88,9
2015-06-28 04:30;83,1
2015-06-28 04:45;82,8
2015-06-28 05:00;82,25
2015-06-28 05:15;81,4
2015-06-28 05:30;81,05
2015-06-28 05:45;84,45
2015-06-28 06:00;89,65
2015-06-28 06:15;83,1
2015-06-28 06:30;84
2015-06-28 06:45;83,55
2015-06-28 07:00;83,15
2015-06-28 07:15;85,15
2015-06-28 07:30;90,4
2015-06-28 07:45;93,55
2015-06-28 08:00;88,75
2015-06-28 08:15;85,1
2015-06-28 08:30;86,8
2015-06-28 08:45;86,8
2015-06-28 09:00;83,6
2015-06-28 09:15;91,5
2015-06-28 09:30;86,55
2015-06-28 09:45;81,75
2015-06-28 10:00;83,1
2015-06-28 10:15;83,1
2015-06-28 10:30;81,4
2015-06-28 10:45;93
2015-06-28 11:00;83,75
2015-06-28 11:15;86,7
2015-06-28 11:30;90,35
2015-06-28 11:45;91,7
2015-06-28 12:00;97,6
2015-06-28 12:15;96,9
2015-06-28 12:30;91,2
2015-06-28 12:45;84,75
2015-06-28 13:00;88,3
2015-06-28 13:15;88,3
2015-06-28 13:30;89,4
2015-06-28 13:45;88,5
2015-06-28 14:00;87,55
2015-06-28 14:15;90,15
2015-06-28 14:30;85,45
2015-06-28 14:45;91,35
2015-06-28 15:00;87,7
2015-06-28 15:15;88,75
2015-06-28 15:30;90,7
2015-06-28 15:45;90,6
2015-06-28 16:00;98,65
2015-06-28 16:15;90,8
2015-06-28 16:30;90,45
2015-06-28 16:45;88,8
2015-06-28 17:00;88,3
2015-06-28 17:15;93,4
2015-06-28 17:30;88,3
2015-06-28 17:45;85,1
2015-06-28 18:00;87,55
2015-06-28 18:15;88,7
2015-06-28 18:30;89,65
2015-06-28 18:45;94,3
2015-06-28 19:00;95,8
2015-06-28 19:15;107,55
2015-06-28 19:30;102,4
2015-06-28 19:45;94,3
2015-06-28 20:00;86,3
2015-06-28 20:15;99,45
2015-06-28 20:30;97,9
2015-06-28 20:45;95,55
2015-06-28 21:00;99
2015-06-28 21:15;99,65
2015-06-28 21:30;98,9
2015-06-28 21:45;99,1
2015-06-28 22:00;94,1
2015-06-28 22:15;90,85
2015-06-28 22:30;86,95
2015-06-28 22:45;89,35
2015-06-28 23:00;94,85
2015-06-28 23:15;95,3
2015-06-28 23:30;99,8
2015-06-28 23:45;85,7
2015-06-29 00:00;85
2015-06-29 00:15;73,7
2015-06-29 00:30;75,9
2015-06-29 00:45;74,35
2015-06-29 01:00;76,2
2015-06-29 01:15;76,85
2015-06-29 01:30;72,8
2015-06-29 01:45;73,95
2015-06-29 02:00;75,2
2015-06-29 02:15;71,15
2015-06-29 02:30;72,2
2015-06-29 02:45;74,85
2015-06-29 03:00;77,75
2015-06-29 03:15;74,8
2015-06-29 03:30;72,95
2015-06-29 03:45;71,55
2015-06-29 04:00;71
2015-06-29 04:15;72,7
2015-06-29 04:30;77,85
2015-06-29 04:45;72,1
2015-06-29 05:00;77,9
2015-06-29 05:15;78,7
2015-06-29 05:30;77,95
2015-06-29 05:45;78,6
2015-06-29 06:00;82,05
2015-06-29 06:15;85,75
2015-06-29 06:30;79,55
2015-06-29 06:45;78,75
2015-06-29 07:00;78,35
2015-06-29 07:15;80,65
2015-06-29 07:30;75,8
2015-06-29 07:45;94,55
2015-06-29 08:00;154,15
2015-06-29 08:15;151,6
2015-06-29 08:30;127,85
2015-06-29 08:45;132,1
2015-06-29 09:00;115,65
2015-06-29 09:15;148,15
2015-06-29 09:30;169,35
2015-06-29 09:45;163,9
2015-06-29 10:00;147
2015-06-29 10:15;145,55
2015-06-29 10:30;147,95
2015-06-29 10:45;156,9
2015-06-29 11:00;152,05
2015-06-29 11:15;167,25
2015-06-29 11:30;175,35
2015-06-29 11:45;177
2015-06-29 12:00;163,75
2015-06-29 12:15;170,3
2015-06-29 12:30;172,1
2015-06-29 12:45;180,2
2015-06-29 13:00;195,8
2015-06-29 13:15;187,05
2015-06-29 13:30;182,25
2015-06-29 13:45;177,05
2015-06-29 14:00;186,05
2015-06-29 14:15;180,7
2015-06-29 14:30;173,15
2015-06-29 14:45;175,65
2015-06-29 15:00;178,9
2015-06-29 15:15;181,95
2015-06-29 15:30;166,45
2015-06-29 15:45;168,3
2015-06-29 16:00;172,5
2015-06-29 16:15;158,9
2015-06-29 16:30;161,6
2015-06-29 16:45;150,6
2015-06-29 17:00;143,9
2015-06-29 17:15;141,85
2015-06-29 17:30;142,05
2015-06-29 17:45;142,3
2015-06-29 18:00;136,95
2015-06-29 18:15;131,4
2015-06-29 18:30;126,55
2015-06-29 18:45;135,1
2015-06-29 19:00;133,85
2015-06-29 19:15;120,9
2015-06-29 19:30;108,75
2015-06-29 19:45;107,55
2015-06-29 20:00;106,15
2015-06-29 20:15;104,8
2015-06-29 20:30;98,35
2015-06-29 20:45;92,95
2015-06-29 21:00;92,75
2015-06-29 21:15;96,1
2015-06-29 21:30;91,25
2015-06-29 21:45;93,8
2015-06-29 22:00;88
2015-06-29 22:15;85,4
2015-06-29 22:30;91,05
2015-06-29 22:45;92,1
2015-06-29 23:00;94,55
2015-06-29 23:15;86,6
2015-06-29 23:30;80,7
2015-06-29 23:45;79,2
2015-06-30 00:00;80,15
2015-06-30 00:15;77,9
2015-06-30 00:30;77,4
2015-06-30 00:45;83,3
2015-06-30 01:00;76,65
2015-06-30 01:15;77,85
2015-06-30 01:30;76,4
2015-06-30 01:45;77,4
2015-06-30 02:00;78,2
2015-06-30 02:15;80,5
2015-06-30 02:30;78,1
2015-06-30 02:45;76,35
2015-06-30 03:00;76,15
2015-06-30 03:15;76,95
2015-06-30 03:30;76,1
2015-06-30 03:45;76
2015-06-30 04:00;82,25
2015-06-30 04:15;81,35
2015-06-30 04:30;78,3
2015-06-30 04:45;75,7
2015-06-30 05:00;80,1
2015-06-30 05:15;84,75
2015-06-30 05:30;89,05
2015-06-30 05:45;84,3
2015-06-30 06:00;83,8
2015-06-30 06:15;81,6
2015-06-30 06:30;82,6
2015-06-30 06:45;80,6
2015-06-30 07:00;79,5
2015-06-30 07:15;85,7
2015-06-30 07:30;83,85
2015-06-30 07:45;122,2
2015-06-30 08:00;172,2
2015-06-30 08:15;160,1
2015-06-30 08:30;128,55
2015-06-30 08:45;132,6
2015-06-30 09:00;120,9
2015-06-30 09:15;134,9
2015-06-30 09:30;135
2015-06-30 09:45;130,6
2015-06-30 10:00;149,3
2015-06-30 10:15;141,25
2015-06-30 10:30;161,65
2015-06-30 10:45;158,05
2015-06-30 11:00;179,2
2015-06-30 11:15;188
2015-06-30 11:30;183,75
2015-06-30 11:45;189,6
2015-06-30 12:00;186,4
2015-06-30 12:15;192,5
2015-06-30 12:30;192,45
2015-06-30 12:45;187,85
2015-06-30 13:00;198,2
2015-06-30 13:15;190,15
2015-06-30 13:30;184,5
2015-06-30 13:45;200,75
2015-06-30 14:00;191,2
2015-06-30 14:15;183,55
2015-06-30 14:30;192,4
2015-06-30 14:45;176,05
2015-06-30 15:00;190,95
2015-06-30 15:15;191,65
2015-06-30 15:30;168,6
2015-06-30 15:45;172,85
2015-06-30 16:00;158,35
2015-06-30 16:15;142,2
2015-06-30 16:30;145,45
2015-06-30 16:45;136,25
2015-06-30 17:00;131,5
2015-06-30 17:15;129,05
2015-06-30 17:30;130,45
2015-06-30 17:45;132,95
2015-06-30 18:00;124,7
2015-06-30 18:15;126,75
2015-06-30 18:30;124,2
2015-06-30 18:45;119,35
2015-06-30 19:00;122,7
2015-06-30 19:15;116,75
2015-06-30 19:30;114,6
2015-06-30 19:45;111,8
2015-06-30 20:00;108,7
2015-06-30 20:15;101,35
2015-06-30 20:30;110,15
2015-06-30 20:45;94,95
2015-06-30 21:00;98,95
2015-06-30 21:15;104,3
2015-06-30 21:30;105,35
2015-06-30 21:45;100,15
2015-06-30 22:00;91,4
2015-06-30 22:15;91,7
2015-06-30 22:30;90,65
2015-06-30 22:45;87,6
2015-06-30 23:00;82,8
2015-06-30 23:15;84,5
2015-06-30 23:30;83,7
2015-06-30 23:45;84,75

